This demonstration page uses our WeatherBlox Daily Observations layout. Learn more.

39.01783, -85.05884

Hourly Observations for June 28, 2019

Temp ( °F °C ) Dew Point ( °F °C ) Humidity (%) Winds ( mph kmh ) Pressure ( in mb ) Visibility ( mi km ) Precip ( " mm )
12:52 am 00:52 Mostly Clear 76 24.4 66 18.9 72 72 WNW 5 7 30.18 1022 10 16.09344 0 0
1:52 am 01:52 Clear 77 25 66 18.9 69 69 Calm 30.15 1021 10 16.09344 0 0
2:52 am 02:52 Partly Cloudy 71 21.7 66 18.9 84 84 SSW 7 11 30.12 1020 10 16.09344 0 0
3:52 am 03:52 Partly Cloudy 72 22.2 67 19.4 84 84 SSW 5 7 30.12 1020 10 16.09344 0 0
4:52 am 04:52 Mostly Clear 70 21.1 67 19.4 90 90 Calm 30.12 1020 10 16.09344 0 0
5:52 am 05:52 Mostly Clear 70 21.1 67 19.4 90 90 Calm 30.15 1021 10 16.09344 0 0
6:52 am 06:52 Mostly Sunny 69 20.6 66 18.9 90 90 WSW 3 6 30.18 1022 7 11.265408 0 0
7:52 am 07:52 Mostly Sunny 72 22.2 68 20 87 87 SSE 5 7 30.18 1022 10 16.09344 0 0
8:52 am 08:52 Mostly Sunny 78 25.6 69 20.6 74 74 Calm 30.18 1022 10 16.09344 0 0
9:52 am 09:52 Sunny 81 27.2 70 21.1 69 69 SSE 7 11 30.18 1022 10 16.09344 0 0
10:52 am 10:52 Sunny 84 28.9 68 20 59 59 S 7 11 30.18 1022 10 16.09344 0 0
11:52 am 11:52 Mostly Sunny 85 29.4 69 20.6 59 59 SW 7 11 30.18 1022 10 16.09344 0 0
12:52 pm 12:52 Partly Cloudy 87 30.6 70 21.1 57 57 S 10 17 30.18 1022 10 16.09344 0 0
1:52 pm 13:52 Partly Cloudy 88 31.1 69 20.6 54 54 WSW 9 15 30.15 1021 10 16.09344 0 0
2:52 pm 14:52 Partly Cloudy 89 31.7 69 20.6 52 52 SW 7 11 30.15 1021 10 16.09344 0 0
3:52 pm 15:52 Partly Cloudy 88 31.1 69 20.6 54 54 SSW 8 13 30.12 1020 10 16.09344 0 0
4:52 pm 16:52 Mostly Cloudy 90 32.2 67 19.4 47 47 W 10 17 30.09 1019 10 16.09344 0 0
5:52 pm 17:52 Partly Cloudy 89 31.7 67 19.4 48 48 VRB 3 6 30.09 1019 10 16.09344 0 0
6:52 pm 18:52 Mostly Cloudy 87 30.6 68 20 53 53 W 5 7 30.09 1019 10 16.09344 0 0
7:52 pm 19:52 Mostly Sunny 86 30 69 20.6 57 57 WSW 3 6 30.09 1019 10 16.09344 0 0
8:52 pm 20:52 Mostly Sunny 85 29.4 66 18.9 53 53 Calm 30.09 1019 10 16.09344 0 0
9:52 pm 21:52 Mostly Clear 82 27.8 68 20 63 63 Calm 30.12 1020 10 16.09344 0 0
10:52 pm 22:52 Clear 80 26.7 67 19.4 64 64 Calm 30.12 1020 10 16.09344 0 0
11:52 pm 23:52 Mostly Clear 75 23.9 67 19.4 76 76 S 3 6 30.12 1020 10 16.09344 0 0

Powered by AerisWeather